Location: ČR
(50.0000°N, 15.0000°E)
Time: 14:29:05
(UTC+00:00)

Altair - Visible Passes

Search period start: 25 October 2021 00:00
Search period end: 04 November 2021 00:00
Orbit: 1502 x 1682 km, 47.2° (Epoch: 24 October)

Date Brightness Start Highest point End Pass type
(mag) Time Alt. Az. Time Alt. Az. Time Alt. Az.
25 Oct 8.9 00:30:17 23° ESE 00:30:17 23° ESE 00:34:41 10° E visible
25 Oct 7.6 02:28:18 50° SSW 02:30:27 61° SSE 02:39:55 10° E visible
25 Oct 7.7 04:26:20 14° W 04:34:49 77° S 04:44:41 10° E visible
26 Oct 9.2 00:06:35 18° E 00:06:35 18° E 00:09:21 10° E visible
26 Oct 7.6 02:04:36 57° S 02:05:19 58° SSE 02:14:42 10° E visible
26 Oct 7.6 04:02:38 21° W 04:09:39 77° S 04:19:28 10° E visible
26 Oct 9.5 23:42:52 13° E 23:42:52 13° E 23:44:00 10° E visible
27 Oct 7.7 01:40:53 55° SE 01:40:53 55° SE 01:49:29 10° E visible
27 Oct 7.5 03:38:54 29° WSW 03:44:27 77° S 03:54:15 10° E visible
28 Oct 8.0 01:17:09 46° ESE 01:17:09 46° ESE 01:24:16 10° E visible
28 Oct 7.5 03:15:10 39° WSW 03:19:17 76° S 03:29:02 10° E visible
29 Oct 8.4 00:53:24 37° ESE 00:53:24 37° ESE 00:59:04 10° E visible
29 Oct 7.4 02:51:25 52° WSW 02:54:07 76° S 03:03:49 10° E visible
29 Oct 7.8 04:49:26 11° W 04:58:35 66° SSW 05:08:20 10° ESE visible
30 Oct 8.8 00:29:38 28° E 00:29:38 28° E 00:33:51 10° E visible
30 Oct 7.3 02:27:39 66° SW 02:28:56 75° S 02:38:37 10° E visible
30 Oct 7.7 04:25:40 17° W 04:33:25 68° SSW 04:43:10 10° ESE visible
31 Oct 9.1 00:05:53 21° E 00:05:53 21° E 00:08:37 10° E visible
31 Oct 7.4 02:03:54 74° SSE 02:03:54 74° SSE 02:13:24 10° E visible
31 Oct 7.6 04:01:55 24° W 04:08:16 70° SSW 04:17:59 10° ESE visible
31 Oct 9.4 23:42:07 15° E 23:42:07 15° E 23:43:24 10° E visible
01 Nov 7.6 01:40:08 63° ESE 01:40:08 63° ESE 01:48:12 10° E visible
01 Nov 7.5 03:38:10 32° W 03:43:06 71° SSW 03:52:48 10° ESE visible
02 Nov 8.0 01:16:24 48° E 01:16:24 48° E 01:22:59 10° E visible
02 Nov 7.5 03:14:25 44° W 03:17:56 72° SSW 03:27:37 10° ESE visible
02 Nov 8.1 05:13:10 10° W 05:21:56 43° SW 05:31:00 10° SSE visible
03 Nov 8.5 00:52:41 36° E 00:52:41 36° E 00:57:47 10° E visible
03 Nov 7.4 02:50:42 58° WSW 02:52:47 74° S 03:02:26 10° ESE visible
03 Nov 8.0 04:48:43 13° W 04:56:49 46° SSW 05:05:58 10° SE visible
